Retour au catalogue

ATLAS 5 CENTAUR DEB

LostHEO
NORAD 43989·DEBRIS·🇺🇸 United States

Lancé Sep 17, 2014 depuis Cape Canaveral Space Force Station

Loading…

Prochains Passages (prochaines 24 heures)

TLE

PériméSource: Space-Track

Époque: Apr 6, 2023, 15:32 UTC

1 43989U 14055AU  23096.64776325 -.00000127  00000-0  00000+0 0  9998
2 43989  20.8204 255.6421 4697390 321.1129  12.8266  1.82959316 30140

Suivez ATLAS 5 CENTAUR DEB en temps réel avec AllMySat

Download on the App Store